KF6ILA Weather Reports


time (UTC)temp
F
wind
direction
speed
knots
gust
knots
rain 1hr
in
rain 24hr
in
rain mn
in
humidity
%
barometer
mb
20260506210836 64 298 5.2 535.3 0.00 0.00 0.00 61 1015.8
20260506203854 65 282 6.1 9.6 0.00 0.00 0.00 63 1015.9
20260506195421 64 334 1.7 8.7 0.00 0.00 0.00 58 1016.5
20260506193433 64 325 4.3 7.8 0.00 0.00 0.00 63 1016.6
20260506191445 66 4 1.7 7.8 0.00 0.00 0.00 60 1016.7
20260506190451 68 74 5.2 10.4 0.00 0.00 0.00 49 1015.8
20260506185954 68 95 3.5 10.4 0.00 0.00 0.00 43 1015.9
20260506185457 68 54 4.3 11.3 0.00 0.00 0.00 45 1016.0
20260506185000 67 82 7.0 11.3 0.00 0.00 0.00 48 1016.0
20260506184503 67 97 7.0 10.4 0.00 0.00 0.00 47 1016.0
20260506184005 66 32 2.6 11.3 0.00 0.01 0.00 45 1016.0
20260506183509 66 55 4.3 11.3 0.00 0.01 0.00 46 1016.0
20260506183012 65 79 5.2 10.4 0.00 0.01 0.00 50 1016.1
20260506182514 64 78 5.2 10.4 0.00 0.01 0.00 53 1016.1
20260506182018 63 33 4.3 7.0 0.00 0.01 0.00 50 1016.1
20260506181521 62 47 3.5 7.0 0.00 0.01 0.00 53 1016.2
20260506181024 62 318 0.9 6.1 0.00 0.01 0.00 60 1016.3
20260506174539 61 228 1.7 4.3 0.00 0.02 0.00 61 1016.4
20260506173047 61 230 0.9 7.0 0.00 0.03 0.00 62 1016.4
20260506172054 62 312 2.6 7.8 0.00 0.04 0.00 56 1016.5
20260506171557 62 23 2.6 7.8 0.00 0.04 0.00 46 1016.6
20260506171059 62 92 3.5 7.8 0.00 0.04 0.00 51 1016.5
20260506170602 62 172 2.6 7.8 0.00 0.04 0.00 53 1016.5
20260506170106 62 84 1.7 6.1 0.00 0.05 0.00 52 1016.5
20260506165609 62 141 0.9 8.7 0.00 0.05 0.00 46 1016.5
20260506165112 62 37 3.5 8.7 0.00 0.06 0.00 53 1016.4
20260506164615 61 38 1.7 10.4 0.00 0.06 0.00 55 1016.4
20260506164117 60 71 7.0 10.4 0.00 0.06 0.00 58 1015.6
20260506163124 59 281 1.7 4.3 0.00 0.06 0.00 60 1015.5
20260506162627 58 345 2.6 4.3 0.00 0.07 0.00 61 1015.4
20260506161136 57 317 0.9 3.5 0.00 0.07 0.00 67 1015.4
20260506160639 56 292 1.7 3.5 0.00 0.08 0.00 68 1015.5
20260506155148 55 305 2.6 6.1 0.00 0.08 0.00 67 1015.6
20260506154651 55 310 2.6 5.2 0.00 0.08 0.00 67 1015.4
20260506154154 54 318 2.6 6.1 0.00 0.09 0.00 68 1015.4
20260506153656 54 321 3.5 6.1 0.00 0.09 0.00 68 1015.4
20260506153200 54 309 3.5 6.1 0.00 0.09 0.00 69 1015.4
20260506152703 53 319 4.3 6.1 0.00 0.10 0.00 69 1015.3
20260506152206 53 317 2.6 7.0 0.00 0.10 0.00 70 1015.3
20260506151709 53 313 3.5 7.0 0.00 0.10 0.00 71 1015.3
20260506151212 52 317 3.5 6.1 0.00 0.10 0.00 72 1015.4
20260506150715 52 319 2.6 5.2 0.00 0.10 0.00 73 1015.4
20260506150217 51 318 1.7 5.2 0.00 0.10 0.00 74 1015.3
20260506145721 51 298 2.6 7.0 0.00 0.10 0.00 75 1015.2
20260506145224 50 306 1.7 7.0 0.00 0.10 0.00 76 1015.4
20260506144727 50 287 3.5 6.1 0.00 0.10 0.00 77 1015.3
20260506144230 49 295 3.5 7.0 0.00 0.10 0.00 77 1015.3
20260506143733 49 291 2.6 7.0 0.00 0.10 0.10 78 1015.2
20260506143236 48 292 4.3 7.0 0.00 0.10 0.10 79 1015.1
20260506142739 48 289 4.3 7.8 0.00 0.10 0.10 80 1015.1
20260506142242 47 300 3.5 7.8 0.00 0.10 0.10 82 1015.0
20260506141745 47 307 3.5 7.8 0.00 0.10 0.10 85 1014.9
20260506141248 46 314 1.7 4.3 0.00 0.11 0.10 86 1015.0
20260506140835 45 301 2.6 5.2 0.00 0.11 0.10 87 1014.9
20260506140751 45 301 2.6 5.2 0.00 0.11 0.10 87 1014.9
20260506140254 45 298 3.5 6.1 0.00 0.11 0.10 88 1014.9
20260506135757 44 295 2.6 6.1 0.00 0.12 0.10 89 1014.9
20260506135300 44 300 3.5 6.1 0.00 0.13 0.10 89 1015.0
20260506134803 44 311 2.6 6.1 0.00 0.13 0.10 90 1014.9
20260506134306 43 299 1.7 7.8 0.00 0.13 0.10 90 1014.8
20260506133809 43 316 3.5 8.7 0.00 0.14 0.10 91 1014.7
20260506133312 43 277 4.3 8.7 0.00 0.14 0.10 91 1014.6
20260506132815 43 286 4.3 8.7 0.00 0.14 0.10 91 1014.7
20260506132318 42 293 4.3 10.4 0.00 0.14 0.10 92 1014.6
20260506131821 42 283 5.2 10.4 0.00 0.15 0.10 92 1014.6
20260506131323 42 287 4.3 8.7 0.00 0.16 0.10 93 1014.4
20260506130827 42 277 6.1 10.4 0.00 0.17 0.10 92 1014.4
20260506130330 42 280 6.1 10.4 0.00 0.18 0.10 93 1014.4
20260506125833 42 282 4.3 9.6 0.00 0.18 0.10 92 1014.3
20260506125336 42 280 6.1 10.4 0.00 0.19 0.10 93 1014.1
20260506124839 42 290 5.2 10.4 0.00 0.20 0.10 93 1014.1
20260506124441 42 279 5.2 11.3 0.00 0.20 0.10 93 1014.0
20260506124342 42 279 5.2 11.3 0.00 0.20 0.10 93 1014.0
20260506123845 42 292 5.2 11.3 0.00 0.21 0.10 93 1014.0
20260506123348 42 266 6.1 12.2 0.00 0.21 0.10 93 1014.0
20260506122851 42 284 5.2 12.2 0.00 0.23 0.10 93 1014.0
20260506122354 42 270 6.1 12.2 0.00 0.23 0.10 94 1013.9
20260506121857 42 286 5.2 11.3 0.00 0.23 0.10 94 1013.9
20260506121359 42 289 4.3 9.6 0.00 0.23 0.10 94 1013.9
20260506120903 42 281 4.3 12.2 0.00 0.23 0.10 94 1013.9
20260506120406 41 277 5.2 13.0 0.00 0.23 0.10 95 1013.8
20260506115909 41 266 7.8 14.8 0.00 0.23 0.10 95 1013.8
20260506115412 41 264 9.6 14.8 0.00 0.24 0.10 95 1013.9
20260506114915 41 270 4.3 13.0 0.00 0.24 0.10 95 1013.8
20260506114418 41 263 7.8 13.9 0.00 0.24 0.10 95 1013.6
20260506113921 41 270 8.7 13.9 0.00 0.24 0.10 96 1013.6
20260506113424 41 260 5.2 13.9 0.00 0.24 0.10 97 1013.6
20260506112927 41 275 8.7 15.6 0.00 0.24 0.10 97 1013.8
20260506112430 41 272 8.7 15.6 0.00 0.24 0.10 97 1013.7
20260506111932 40 274 7.8 11.3 0.00 0.24 0.10 97 1013.7
20260506111508 41 279 6.1 12.2 0.00 0.24 0.10 97 1013.7
20260506111436 41 279 6.1 12.2 0.00 0.24 0.10 97 1013.7
20260506110939 41 272 7.8 12.2 0.00 0.25 0.10 97 1013.6
20260506110442 40 273 7.0 9.6 0.00 0.25 0.10 97 1013.5
20260506105945 41 273 6.1 11.3 0.00 0.25 0.10 97 1013.5
20260506105520 41 268 6.1 12.2 0.00 0.25 0.10 97 1013.5
20260506105448 41 268 6.1 12.2 0.00 0.25 0.10 97 1013.5
20260506104454 41 284 6.1 13.0 0.00 0.25 0.10 97 1013.6
20260506103957 41 270 9.6 14.8 0.00 0.26 0.10 97 1013.6
20260506103500 41 268 7.8 14.8 0.00 0.26 0.10 97 1013.6
20260506103004 41 274 7.8 13.0 0.00 0.27 0.10 97 1013.6
20260506102506 41 276 7.8 14.8 0.00 0.27 0.10 97 1013.5
20260506102009 41 262 9.6 14.8 0.00 0.28 0.10 97 1013.6
20260506101551 41 258 8.7 13.9 0.00 0.28 0.10 97 1013.4
20260506101512 41 258 8.7 13.9 0.00 0.28 0.10 97 1013.4
20260506101049 41 270 7.8 14.8 0.00 0.29 0.10 97 1013.5
20260506101015 41 270 7.8 14.8 0.00 0.29 0.10 97 1013.5
20260506100518 41 270 9.6 14.8 0.00 0.30 0.10 98 1013.5
20260506100021 41 266 8.7 14.8 0.00 0.30 0.10 98 1013.5
20260506095524 41 275 8.7 14.8 0.00 0.31 0.10 98 1013.5
20260506095028 41 281 8.7 16.5 0.00 0.32 0.10 98 1013.4
20260506094530 40 273 7.8 16.5 0.00 0.32 0.10 98 1013.5
20260506094033 40 271 7.8 13.9 0.00 0.33 0.10 98 1013.5
20260506093536 40 270 7.8 12.2 0.00 0.33 0.10 98 1013.5
20260506093111 40 262 7.8 13.0 0.00 0.34 0.10 98 1013.5
20260506093039 40 262 7.8 13.0 0.00 0.34 0.10 98 1013.5
20260506092542 40 267 7.0 15.6 0.00 0.35 0.10 98 1013.5
20260506092137 40 272 9.6 15.6 0.00 0.35 0.10 98 1013.4
20260506092045 40 272 9.6 15.6 0.00 0.35 0.10 98 1013.4
20260506091548 40 260 8.7 15.6 0.00 0.36 0.10 98 1013.5
20260506091051 40 271 7.0 16.5 0.00 0.37 0.10 98 1013.5
20260506090554 40 265 9.6 16.5 0.00 0.39 0.10 98 1013.5
20260506090154 40 264 7.8 16.5 0.00 0.40 0.10 98 1013.6
20260506090058 40 264 7.8 16.5 0.00 0.40 0.10 98 1013.6
20260506085600 40 259 10.4 17.4 0.00 0.42 0.10 98 1013.6
20260506085103 40 267 9.6 17.4 0.00 0.43 0.10 98 1013.6
20260506084109 40 259 10.4 16.5 0.00 0.45 0.10 98 1013.7
20260506083612 40 265 9.6 16.5 0.00 0.46 0.10 99 1013.9
20260506083115 40 273 8.7 18.2 0.00 0.47 0.10 98 1013.9
20260506082618 40 275 8.7 18.2 0.00 0.47 0.10 99 1013.9
20260506082121 39 271 8.7 15.6 0.00 0.47 0.10 98 1013.8
20260506081624 39 260 8.7 15.6 0.00 0.47 0.10 98 1013.9
20260506081127 39 239 9.6 15.6 0.00 0.48 0.10 98 1013.8
20260506080629 39 256 8.7 15.6 0.00 0.49 0.10 98 1014.0
20260506080133 39 249 11.3 15.6 0.00 0.49 0.10 98 1014.0
20260506073224 39 257 12.2 15.6 0.00 0.49 0.10 98 1014.1
20260506073150 39 257 12.2 15.6 0.00 0.49 0.10 98 1014.1
20260506072653 39 248 11.3 15.6 0.00 0.49 0.10 98 1014.0
20260506072157 39 255 10.4 15.6 0.00 0.49 0.10 98 1013.9
20260506071700 39 261 11.3 18.2 0.00 0.49 0.10 98 1014.2
20260506071203 39 255 10.4 18.2 0.00 0.49 0.10 98 1014.1
20260506070909 39 247 12.2 18.2 0.00 0.49 0.10 98 1014.0
20260506070706 39 247 12.2 18.2 0.00 0.49 0.10 98 1014.0
20260506070209 40 250 13.9 18.2 0.00 0.49 0.10 98 1014.0
20260506062233 40 258 10.4 19.1 0.00 0.49 0.10 98 1013.7
20260506061736 40 247 12.2 19.1 0.00 0.49 0.10 98 1013.6
20260506061239 40 261 13.9 18.2 0.00 0.49 0.10 97 1013.8
20260506060742 40 255 13.9 18.2 0.00 0.49 0.10 97 1013.8
20260506060245 40 257 13.0 18.2 0.00 0.49 0.10 97 1013.6
20260506051316 41 258 11.3 18.2 0.00 0.50 0.10 98 1013.5
20260506050321 41 259 9.6 16.5 0.00 0.50 0.10 98 1013.5
20260506044830 41 254 10.4 19.1 0.00 0.50 0.10 97 1013.4
20260506044333 41 256 12.2 19.1 0.00 0.50 0.10 97 1013.4
20260506043835 41 261 13.0 18.2 0.00 0.50 0.10 97 1013.3
20260506043339 41 258 14.8 18.2 0.00 0.50 0.10 97 1013.2
20260506042940 41 257 13.9 20.0 0.00 0.50 0.10 97 1013.1
20260506042842 41 257 13.9 20.0 0.00 0.50 0.10 97 1013.1
20260506042345 41 257 13.9 20.0 0.00 0.50 0.10 97 1013.0
20260506041848 41 256 13.0 19.1 0.00 0.50 0.10 97 1013.0
20260506041351 41 256 13.9 19.1 0.00 0.50 0.10 97 1012.9
20260506040854 41 262 12.2 20.0 0.00 0.50 0.10 97 1012.8
20260506035933 41 261 13.9 19.1 0.00 0.50 0.10 97 1012.6
20260506035900 41 261 13.9 19.1 0.00 0.50 0.10 97 1012.6
20260506035403 41 258 13.9 19.1 0.00 0.50 0.10 97 1012.6
20260506034956 41 255 13.0 19.1 0.00 0.50 0.10 97 1012.6
20260506034906 41 255 13.0 19.1 0.00 0.50 0.10 97 1012.6
20260506034409 41 256 13.9 19.1 0.00 0.50 0.10 97 1012.4
20260506033946 41 257 14.8 19.1 0.00 0.50 0.10 97 1012.3
20260506033912 41 257 14.8 19.1 0.00 0.50 0.10 97 1012.3
20260506033456 41 257 11.3 18.2 0.00 0.50 0.10 97 1012.4
20260506033416 41 257 11.3 18.2 0.00 0.50 0.10 97 1012.4
20260506032917 42 250 12.2 20.0 0.00 0.50 0.10 97 1012.3
20260506032421 42 259 12.2 20.0 0.00 0.50 0.10 96 1012.2
20260506031427 42 269 13.0 18.2 0.00 0.50 0.10 96 1012.1
20260506030930 42 270 11.3 18.2 0.00 0.50 0.10 96 1012.2
20260506025936 42 260 12.2 19.1 0.00 0.50 0.10 95 1012.1
20260506025439 42 256 11.3 19.1 0.00 0.50 0.10 95 1011.9
20260506024942 42 260 10.4 17.4 0.00 0.50 0.10 95 1011.9
20260506023948 42 267 9.6 18.2 0.00 0.50 0.10 94 1011.9
20260506023451 42 257 11.3 20.9 0.00 0.50 0.10 94 1011.8
20260506022955 42 258 13.9 20.9 0.00 0.50 0.10 93 1011.7
20260506022456 42 251 15.6 20.9 0.00 0.50 0.10 93 1011.6
20260506022000 42 252 13.9 20.9 0.00 0.50 0.10 93 1011.6
20260506021006 42 251 13.9 19.1 0.00 0.50 0.10 92 1011.5
20260506020509 43 266 11.3 14.8 0.00 0.50 0.10 91 1011.5
20260506020012 43 264 8.7 20.0 0.00 0.50 0.10 90 1011.4
20260506015514 43 266 11.3 20.0 0.00 0.50 0.10 90 1011.3
20260506015019 43 268 11.3 20.0 0.00 0.50 0.10 89 1011.1
20260506014521 43 270 12.2 18.2 0.00 0.50 0.10 88 1011.1
20260506014256 44 260 11.3 19.1 0.00 0.50 0.10 87 1010.9
20260506014024 44 260 11.3 19.1 0.00 0.50 0.10 87 1010.9
20260506013527 44 266 13.0 20.9 0.00 0.50 0.10 86 1011.0
20260506013219 45 271 13.0 20.9 0.00 0.50 0.10 85 1011.1
20260506013030 45 271 13.0 20.9 0.00 0.50 0.10 85 1011.1
20260506012719 45 277 11.3 16.5 0.00 0.50 0.10 84 1011.2
20260506012533 45 277 11.3 16.5 0.00 0.50 0.10 84 1011.2
20260506012146 45 256 10.4 20.9 0.00 0.50 0.10 84 1011.1
20260506012036 45 256 10.4 20.9 0.00 0.50 0.10 84 1011.1
20260506011539 45 251 12.2 20.9 0.00 0.50 0.10 83 1011.1
20260506011042 46 250 9.6 18.2 0.00 0.50 0.10 82 1011.0
20260506005054 47 267 8.7 20.0 0.00 0.50 0.10 81 1011.0
20260506004100 47 262 7.8 21.7 0.00 0.50 0.10 81 1011.0
20260506003603 47 275 10.4 21.7 0.00 0.50 0.10 81 1010.6
20260506003106 48 270 14.8 20.0 0.00 0.50 0.10 80 1010.6
20260506002740 47 267 9.6 21.7 0.00 0.50 0.10 81 1010.6
20260506002609 47 267 9.6 21.7 0.00 0.50 0.10 81 1010.6
20260506002112 47 288 11.3 21.7 0.00 0.50 0.10 81 1010.5
20260506001615 46 276 10.4 17.4 0.00 0.50 0.10 83 1010.4
20260506001118 46 261 11.3 20.9 0.00 0.50 0.10 83 1010.5
20260506000701 46 266 9.6 25.2 0.00 0.50 0.10 82 1010.4
20260506000622 46 266 9.6 25.2 0.00 0.50 0.10 82 1010.4
20260506000124 47 271 12.2 25.2 0.00 0.50 0.10 79 1010.3
20260505235627 48 255 16.5 24.3 0.00 0.50 0.10 79 1010.5
20260505235129 46 267 13.9 20.0 0.00 0.50 0.10 84 1010.1
20260505234633 46 274 10.4 23.5 0.00 0.50 0.10 83 1010.0
20260505234136 46 279 14.8 24.3 0.00 0.50 0.10 79 1010.0
20260505233639 47 275 13.9 24.3 0.00 0.50 0.10 81 1010.1
20260505233142 46 249 15.6 25.2 0.00 0.50 0.10 79 1010.0
20260505231651 46 254 13.0 26.9 0.00 0.50 0.10 82 1010.2
20260505231154 46 258 16.5 27.8 0.00 0.50 0.10 81 1010.2
20260505230657 46 252 15.6 27.8 0.00 0.50 0.10 81 1009.9
20260505225703 47 289 18.2 25.2 0.00 0.50 0.10 80 1009.8
20260505225206 47 263 9.6 23.5 0.00 0.50 0.10 81 1010.1
20260505224709 48 275 10.4 26.1 0.00 0.50 0.10 80 1010.2
20260505223715 48 257 10.4 26.1 0.00 0.50 0.10 82 1010.3
20260505223218 47 260 16.5 26.1 0.00 0.50 0.10 80 1010.3
20260505222721 48 271 13.0 24.3 0.00 0.50 0.10 81 1010.5
20260505222224 49 255 17.4 25.2 0.00 0.50 0.10 81 1010.4
20260505220733 48 265 17.4 26.1 0.00 0.50 0.10 81 1011.3
20260505220236 49 251 17.4 25.2 0.00 0.50 0.10 82 1011.3
20260505215739 48 263 13.0 24.3 0.00 0.50 0.10 85 1011.3
20260505215242 47 260 19.1 24.3 0.00 0.50 0.10 85 1011.4
20260505214745 48 282 9.6 22.6 0.00 0.50 0.10 88 1011.3
20260505214248 47 266 16.5 26.1 0.00 0.50 0.10 90 1011.4
20260505213752 46 257 13.9 26.1 0.00 0.50 0.10 91 1011.6
20260505213254 46 269 12.2 20.9 0.00 0.50 0.10 92 1011.5
20260505212833 45 261 13.0 21.7 0.00 0.50 0.10 93 1011.7
20260505212757 45 261 13.0 21.7 0.00 0.50 0.10 93 1011.7
20260505212300 45 261 15.6 21.7 0.00 0.50 0.10 93 1011.6